Regional Weather Roundup
Issued by NWS

Home | Current Version | Previous Version | Text Only | Print | Product List | Glossary On
Versions: 1 2 3 4 5 6 7 8 9 10 11 12 13 14 15 16 17 18 19 20 21 22 23 24 25 26 27 28 29 30 31 32 33 34 35 36 37 38 39 40 41 42 43 44 45 46 47 48 49 50
000
ASUS42 KTBW 230617
RWRFL
FLORIDA REGIONAL WEATHER ROUNDUP
NATIONAL WEATHER SERVICE TAMPA BAY RUSKIN FL
200 AM EDT SUN APR 23 2017

NOTE: "FAIR" INDICATES FEW OR NO CLOUDS BELOW 12,000 FEET WITH NO
SIGNIFICANT WEATHER AND/OR OBSTRUCTIONS TO VISIBILITY.

FLZ001>010-012>015-112-114-115-230700-
PANHANDLE FLORIDA

CITY           SKY/WX    TMP DP  RH WIND       PRES   REMARKS
PENSACOLA      CLOUDY    74  67  78 W6        29.90F
PENSACOLA NAS  CLOUDY    73  67  81 W3        29.89F
MILTON NAS     LGT RAIN  68  67  96 W3        29.91
CRESTVIEW      CLOUDY    67  64  90 CALM      29.91F
DUKE FIELD     FAIR      69  66  88 SW6       29.88F
VALPARAISO     MOCLDY    72  66  82 CALM      29.90F
MARY ESTHER    PTCLDY    73  62  67 SW3       29.88F
PANAMA CITY    FAIR      62  60  93 CALM      29.89F
TYNDALL AFB    CLEAR     70  64  81 W6        29.91R
APALACHICOLA   CLEAR     65  64  97 N3        29.90S

STATION/POSITION SKY/WX   TEMP    WIND        PRES    WAVE   SWELL
                          AIR SEA DIR/SP/G            HT/PER HT/PER
                          (F)     (DEG/KT/KT) (MB)    (FT/S) (FT/S)
30.1N   87.6W              74 76  220/ 12/ 14 1011.9F   3/ 7   2/ 7
29.2N   88.2W              75 77  220/ 12/ 14 1012.4
28.8N   86.0W              73 75  250/  4/  6 1012.6S   2/ 6   2/ 6
PANAMA CITY BEAC           73 78  250/ 11/ 12 1012.7F
TOWER C                    72     270/  7/  7 1013.2S
28.5N   84.5W              73 74  220/  2/  2 1012.5R   2/ 7   2/ 7

$$
FLZ011-016>038-118-127-128-134-139-239-230700-
NORTH FLORIDA

CITY           SKY/WX    TMP DP  RH WIND       PRES   REMARKS
MARIANNA       CLEAR     66  64  93 S6        29.88F
TALLAHASSEE    CLEAR     61  58  90 CALM      29.90S
PERRY          CLEAR     62  60  94 CALM      29.91S
CROSS CITY     CLOUDY    63  59  88 CALM      29.90F
LAKE CITY      CLOUDY    68  63  83 CALM      29.91F
GAINESVILLE    CLOUDY    69  62  78 CALM      29.91S
WILLISTON      CLEAR     68  64  88 CALM      29.91S
PALATKA        CLOUDY    68  68 100 CALM      29.91F
MAYPORT NAS    CLOUDY    68  68 100 S6        29.90F
JACKSONVILLE   PTCLDY    65  64  97 CALM      29.89F
JAX NAS        PTCLDY    74  67  78 S9        29.91F
FERNANDINA BEA FAIR      73  68  83 S6        29.89F
ST AUGUSTINE   MOCLDY    72  67  84 S6        29.92S

STATION/POSITION SKY/WX   TEMP    WIND        PRES    WAVE   SWELL
                          AIR SEA DIR/SP/G            HT/PER HT/PER
                          (F)     (DEG/KT/KT) (MB)    (FT/S) (FT/S)
SHELL POINT      NOT AVBL
KEATON BEACH               74     290/  9/ 10 1012.0F
CEDAR KEY                  73     300/  3/  5 1012.7F
FERNANDINA                 72 77  160/  5/  7 1013.2F
30.7N   81.3W                 72                N/A     3/ 4
MAYPORT                    72 76  200/  3/  4 1013.1F
31.4N   80.9W              73 72  200/ 10/ 12 1012.4F   3/11   2/11
ST AUGUSTINE               71 75  220/  4/  6 1013.6F

$$
FLZ040-043>046-052-053-057-058-063-144-230700-
INTERIOR CENTRAL FLORIDA

CITY           SKY/WX    TMP DP  RH WIND       PRES   REMARKS
OCALA          PTCLDY    68  63  83 CALM      29.91F
THE VILLAGES     N/A     73  68  83 CALM      29.81F
LEESBURG       PTCLDY    75  68  78 SE6       29.91F
SANFORD        PTCLDY    74  66  76 S5        29.91F
ORLANDO EXEC   MOCLDY    74  65  73 S6        29.91F
ORLANDO INTL   CLOUDY    71  66  84 S6        29.91F
KISSIMMEE      MOCLDY    72  66  81 S6        29.92F
WINTER HAVEN   MOCLDY    74  62  66 S6        29.92F
LAKELAND       CLOUDY    72  64  78 SW3       29.92S
BARTOW         MOCLDY    70  64  83 CALM      29.91F
OKEECHOBEE     CLOUDY    68  63  83 N3        29.90F

$$
FLZ041-047-054-059-064-141-147-230700-
EAST CENTRAL FLORIDA

CITY           SKY/WX    TMP DP  RH WIND       PRES   REMARKS
DAYTONA BEACH  MOCLDY    71  69  93 SW3       29.91F
DELAND         CLEAR     72  68  88 S6        29.91F
JFK SPACE CTR  CLOUDY    75  69  82 S6        29.90F
CAPE CANAVERAL CLOUDY    76  68  78 S9        29.90S
PATRICK AFB    CLOUDY    76  68  74 S10       29.90S
MELBOURNE      CLOUDY    75  67  76 SW3       29.90F
VERO BEACH     MOCLDY    77  68  73 SE14      29.89F
FT PIERCE      CLOUDY    76  68  76 SE9       29.89F
STUART         MOCLDY    79  70  73 SE7       29.90S

STATION/POSITION SKY/WX   TEMP    WIND        PRES    WAVE   SWELL
                          AIR SEA DIR/SP/G            HT/PER HT/PER
                          (F)     (DEG/KT/KT) (MB)    (FT/S) (FT/S)
28.5N   80.2W              76 75  150/ 12/ 14 1013.7F   4/ 4   2/10
28.9N   78.5W              75 77  150/ 14/ 16 1013.5F   5/11   3/11
TRIDENT PIER               75 77  150/  7/ 10 1014.1F
28.4N   80.5W                 76                N/A     3/ 5   2/11
27.5N   80.2W                 78                N/A     4/ 4   2/11

$$
FLZ050-056-061-142-242-148-248-149-249-151-251-155-255-
160-260-230700-
WEST CENTRAL FLORIDA

CITY           SKY/WX    TMP DP  RH WIND       PRES   REMARKS
CRYSTAL RIVER  CLOUDY    68  64  88 CALM      29.91S
INVERNESS      CLOUDY    70  68  94 CALM      29.91F
BROOKSVILLE    CLOUDY    71  68  90 CALM      29.91F
CLEARWATER AIR MOCLDY    70  70 100 CALM      29.90F
ST PETE CLEARW PTCLDY    71  68  90 CALM      29.89F
TAMPA INTL     MOCLDY    75  68  78 CALM      29.90F
TAMPA EXEC     MOCLDY    70  66  88 CALM      29.91F
PLANT CITY     MOCLDY    75  70  83 CALM      29.93F
MACDILL AFB    CLOUDY    73  69  89 CALM      29.89F
PETER O KNIGHT MOCLDY    75  72  88 NE3       29.90F
ST PETERSBURG  MOCLDY    74  69  85 CALM      29.88F
SARASOTA       MOCLDY    71  68  90 NE5       29.89S
VENICE         MOCLDY    72  70  94 NE5       29.90F

STATION/POSITION SKY/WX   TEMP    WIND        PRES    WAVE   SWELL
                          AIR SEA DIR/SP/G            HT/PER HT/PER
                          (F)     (DEG/KT/KT) (MB)    (FT/S) (FT/S)
27.3N   84.2W                 74                N/A     2/ 6
CLEARWATER BEACH           74 77  210/  1/  1 1012.6F
MIDDLE TAMPA BAY           74     100/  5/  5 1012.8F
VENICE                     72 76   30/  3/  4 1012.0F

$$
FLZ066-069-070-075>078-162-262-165-265-230700-
SOUTHWEST FLORIDA AND KEYS

CITY           SKY/WX    TMP DP  RH WIND       PRES   REMARKS
PUNTA GORDA    CLOUDY    69  68  96 N5        29.90F
FT MYERS       CLOUDY   N/A N/A N/A NE5       29.87F
SOUTHWEST INTL MOCLDY    71  67  87 N5        29.87S
NAPLES         CLOUDY   N/A N/A N/A NE5       29.85F
IMMOKALEE      MOCLDY    68  66  94 CALM      29.86S
MARATHON       LGT RAIN  75  73  93 SE17G31   29.80F FOG
KEY WEST NAS   LGT RAIN N/A N/A N/A SE20      29.79F
KEY WEST INTL  CLOUDY    76  72  87 E14       29.79F

STATION/POSITION SKY/WX   TEMP    WIND        PRES    WAVE   SWELL
                          AIR SEA DIR/SP/G            HT/PER HT/PER
                          (F)     (DEG/KT/KT) (MB)    (FT/S) (FT/S)
NAPLES                        76   50/  3/  4 1010.7F
26.0N   85.6W              76     100/ 10/ 12 1010.6
DRY TORTUGAS               75     130/ 10/ 11 1009.6F
SAND KEY                   75                 1009.1F
MOLASSES REEF              72 78  170/ 25/ 27 1010.7

$$
FLZ067-068-071>074-168-172>174-230700-
SOUTHEAST FLORIDA

CITY           SKY/WX    TMP DP  RH WIND       PRES   REMARKS
W PALM BEACH   CLOUDY    74  68  81 SE12      29.88F
FT LAUDER-EXEC MOCLDY    79  69  71 SE14      29.86F
FT LAUDERDALE  MOCLDY    77  70  79 SE18      29.85F
POMPANO BEACH  LGT RAIN  78  71  79 SE18G24   29.87F
PEMBROKE PINES CLOUDY    77  70  79 SE13      29.87F
OPA LOCKA      LGT RAIN N/A N/A N/A SE10      29.86F
MIAMI          LGT RAIN  77  71  82 SE13      29.86F
WEST KENDALL   LGT RAIN  76  71  85 SE16G24   29.85F
HOMESTEAD      CLOUDY    75  75 100 E13G22    29.84F

STATION/POSITION SKY/WX   TEMP    WIND        PRES    WAVE   SWELL
                          AIR SEA DIR/SP/G            HT/PER HT/PER
                          (F)     (DEG/KT/KT) (MB)    (FT/S) (FT/S)
PORT EVERGLADES            77     130/ 12/ 17 1011.4F
VIRGINIA KEY               77 77  100/ 16/ 20 1010.4F
LAKE WORTH                 76 78  140/ 18/ 20 1012.4F
FOWEY ROCKS                76 77  130/ 28/ 30 1010.9F
SETTLEMENT POINT           75     130/ 11/ 13 1012.0F

$$




USA.gov is the U.S. government's official web portal to all federal, state and local government web resources and services.